Regional Weather Roundup
Issued by NWS Midland/Odessa, TX

Skip options and go directly to product.
Home | Oldest Version | Next Version | Current Version | All | Text Only | Save Text | Print | Product List | Glossary On

Skip product version selection by date and time.   
857
ASUS44 KMAF 230102
RWRMAF
MIDLAND AREA WEATHER ROUNDUP
NATIONAL WEATHER SERVICE MIDLAND TX
700 PM CST SAT NOV 22 2014

...IN SOUTHWEST TEXAS AND SOUTHEAST NEW MEXICO...

CITY           SKY/WX    TMP DP  RH WIND       PRES   REMARKS
ALPINE         CLEAR     57  34  42 W15       29.97R
ANDREWS        FAIR      59  48  67 W3        29.81R
ARTESIA        NOT AVBL
BIG SPRING     CLEAR     59  55  87 E7        29.82S
CARLSBAD       CLEAR     63  26  24 W20G25    29.80S
DRYDEN           N/A     62  39  42 W6        29.80R
FORT STOCKTON  CLEAR     60  39  45 SW10      29.84R
GUAD PASS      NOT AVBL
HOBBS          CLEAR     54  32  43 SW8       29.82S
MARFA          CLEAR     54  32  43 W8        29.97R
MIDLAND AIRPK  CLEAR     61  52  72 CALM      29.80S
MIDLAND INTL   CLEAR     59  55  87 CALM      29.79S
ODESSA         CLEAR     63  41  44 W6        29.80S
PECOS          CLEAR     64  36  35 W13       29.82R
PRESIDIO       FAIR      66  37  34 W8        29.89S
SEMINOLE       PTCLDY    57  32  37 W6        29.81S
SNYDER         CLOUDY    52  51  96 SE6       29.81S
WINK           CLEAR     61  36  39 W9        29.80R
$$
...OTHER STATIONS IN TEXAS...

CITY           SKY/WX    TMP DP  RH WIND       PRES   REMARKS
ABILENE        CLOUDY    56  55  97 SE9       29.79R
AMARILLO       CLEAR     57  22  25 S16       29.70R
AUSTIN         CLOUDY    64  64 100 NE3       29.74F
BROWNSVILLE    CLOUDY    74  71  91 S13       29.73S
CORPUS CHRISTI LGT RAIN  72  69  90 S12       29.77R
DALLAS FTW     RAIN      57  57 100 SW15      29.86R FOG
DEL RIO        CLOUDY    61  54  77 W7        29.75S
EL PASO        PTCLDY    63  22  20 W15       29.90F
HOUSTON INT    CLOUDY    67  66  97 SE15      29.80F FOG
LUBBOCK        PTCLDY    54  51  90 S9        29.76R
SAN ANGELO     MOCLDY    58  55  90 E7        29.81S
SAN ANTONIO    MOCLDY    70  66  87 SE7       29.75S
WACO           CLOUDY    61  60  97 NW9       29.82S
WICHITA FALLS  NOT AVBL
$$
...OTHER LOCATIONS IN NEW MEXICO...

CITY           SKY/WX    TMP DP  RH WIND       PRES   REMARKS
ALAMAGORDO     PTCLDY    55  19  24 MISG      29.89F
ALBUQUERQUE    MOCLDY    52  15  23 W7        29.91R
CANNON AFB     CLEAR     66  16  14 W22G32    29.76F
CLOVIS         CLEAR     52  16  24 SW13      29.74S
HOLLOMAN AFB   PTCLDY    54  22  28 SE6       29.87F
ROSWELL        CLEAR     51  21  30 S5        29.79S
RUIDOSO        PTCLDY    46  14  27 W16       29.91F WCI  40
SANTA FE       PTCLDY    39  11  31 N8        29.90S WCI  33
TRUTH OR CONSE MOCLDY    56  21  25 W8        29.90R
TUCUMCARI        N/A     59  17  19 SW16      29.65F
$$

USA.gov is the U.S. government's official web portal to all federal, state and local government web resources and services.